Location: Harmony
(28.2000°N, 81.1500°W)
Time: 20:26:45
(UTC-04:00)

USA 116 - Pass Details

Date: 18 December 2017
Orbit: 405 x 834 km, 97.9° (Epoch: 18 November)

Event Time Altitude Azimuth Distance (km) Brightness Sun altitude
Rises 17:58:51 0° 12° (NNE) 2,334 6.6 -6.2°
Reaches altitude 10° 18:00:49 10° 12° (NNE) 1,464 5.6 -6.6°
Maximum altitude 18:03:54 88° 96° (E) 412 3.1 -7.2°
Drops below altitude 10° 18:07:03 10° 192° (SSW) 1,496 6.4 -7.9°
Sets 18:09:05 0° 192° (SSW) 2,391 7.5 -8.3°
